| time (UTC) | temp C | wind direction | speed KPH | gust KPH | rain 1hr cm | rain 24hr cm | rain mn cm | humidity % | barometer mb |
| 20260509024005 | 24 | 127 | 3.2 | 14.5 | 0.00 | 0.00 | 0.00 | 52 | 1024.7 |
| 20260509022505 | 24 | 128 | 3.2 | 8.0 | 0.00 | 0.00 | 0.00 | 51 | 1024.9 |
| 20260509022004 | 24 | 174 | 3.2 | 14.5 | 0.00 | 0.00 | 0.00 | 53 | 1025.0 |
| 20260509021004 | 23 | 153 | 3.2 | 8.0 | 0.00 | 0.00 | 0.00 | 53 | 1025.2 |
| 20260509020006 | 23 | 199 | 3.2 | 16.1 | 0.00 | 0.00 | 0.00 | 53 | 1025.3 |
| 20260509015504 | 24 | 98 | 1.6 | 16.1 | 0.00 | 0.00 | 0.00 | 53 | 1025.2 |
| 20260509014504 | 25 | 190 | 4.8 | 14.5 | 0.00 | 0.00 | 0.00 | 53 | 1025.3 |
| 20260509012504 | 23 | 155 | 6.4 | 11.3 | 0.00 | 0.00 | 0.00 | 54 | 1025.5 |
| 20260509012003 | 23 | 126 | 3.2 | 12.9 | 0.00 | 0.00 | 0.00 | 54 | 1025.6 |
| 20260509010503 | 23 | 93 | 1.6 | 8.0 | 0.00 | 0.00 | 0.00 | 56 | 1025.7 |
| 20260509005503 | 23 | 55 | 1.6 | 4.8 | 0.00 | 0.00 | 0.00 | 55 | 1025.8 |
| 20260509003004 | 22 | 187 | 1.6 | 4.8 | 0.00 | 0.00 | 0.00 | 53 | 1025.9 |
| 20260509000504 | 22 | 287 | 1.6 | 4.8 | 0.00 | 0.00 | 0.00 | 54 | 1026.0 |
| 20260508234003 | 21 | 264 | 3.2 | 4.8 | 0.00 | 0.00 | 0.00 | 55 | 1025.9 |
| 20260508233004 | 20 | 264 | 0.0 | 4.8 | 0.00 | 0.00 | 0.00 | 57 | 1026.0 |
| 20260508231503 | 19 | 47 | 0.0 | 4.8 | 0.00 | 0.00 | 0.00 | 61 | 1025.9 |
| 20260508230003 | 18 | 346 | 1.6 | 4.8 | 0.00 | 0.00 | 0.00 | 62 | 1025.8 |
| 20260508225503 | 18 | 166 | 1.6 | 4.8 | 0.00 | 0.00 | 0.00 | 60 | 1025.6 |
| 20260508225004 | 18 | 235 | 1.6 | 4.8 | 0.00 | 0.00 | 0.00 | 61 | 1025.5 |
| 20260508224503 | 18 | 219 | 1.6 | 4.8 | 0.00 | 0.00 | 0.00 | 59 | 1025.5 |
| 20260508224003 | 18 | 233 | 1.6 | 4.8 | 0.00 | 0.00 | 0.00 | 59 | 1025.4 |
| 20260508222504 | 18 | 269 | 1.6 | 4.8 | 0.00 | 0.00 | 0.00 | 62 | 1025.4 |
| 20260508221503 | 16 | 342 | 0.0 | 3.2 | 0.00 | 0.00 | 0.00 | 67 | 1025.4 |
| 20260508220502 | 15 | 223 | 1.6 | 3.2 | 0.00 | 0.00 | 0.00 | 72 | 1025.3 |
| 20260508220004 | 14 | 233 | 0.0 | 0.0 | 0.00 | 0.00 | 0.00 | 76 | 1025.3 |
| 20260508215504 | 13 | 296 | 0.0 | 0.0 | 0.00 | 0.00 | 0.00 | 77 | 1025.3 |
| 20260508214503 | 13 | 214 | 0.0 | 0.0 | 0.00 | 0.00 | 0.00 | 76 | 1025.1 |
| 20260508214003 | 13 | 214 | 0.0 | 0.0 | 0.00 | 0.00 | 0.00 | 76 | 1025.0 |
| 20260508213004 | 12 | 214 | 0.0 | 0.0 | 0.00 | 0.00 | 0.00 | 78 | 1024.9 |
| 20260508205503 | 10 | 224 | 0.0 | 0.0 | 0.00 | 0.00 | 0.00 | 80 | 1024.4 |
| 20260508203504 | 10 | 224 | 0.0 | 0.0 | 0.00 | 0.00 | 0.00 | 79 | 1024.3 |
| 20260508202504 | 10 | 224 | 0.0 | 0.0 | 0.00 | 0.00 | 0.00 | 79 | 1024.2 |
| 20260508202003 | 10 | 224 | 0.0 | 0.0 | 0.00 | 0.00 | 0.00 | 79 | 1024.0 |
| 20260508201503 | 10 | 224 | 0.0 | 0.0 | 0.00 | 0.00 | 0.00 | 79 | 1024.0 |
| 20260508200004 | 10 | 224 | 0.0 | 0.0 | 0.00 | 0.00 | 0.00 | 78 | 1023.7 |
| 20260508195503 | 10 | 224 | 0.0 | 0.0 | 0.00 | 0.00 | 0.00 | 77 | 1023.7 |
| 20260508194504 | 10 | 224 | 0.0 | 0.0 | 0.00 | 0.00 | 0.00 | 77 | 1023.6 |
| 20260508194005 | 10 | 224 | 0.0 | 0.0 | 0.00 | 0.00 | 0.00 | 75 | 1023.4 |
| 20260508192503 | 10 | 224 | 0.0 | 0.0 | 0.00 | 0.00 | 0.00 | 75 | 1023.5 |
| 20260508192004 | 10 | 224 | 0.0 | 0.0 | 0.00 | 0.00 | 0.00 | 74 | 1023.3 |
| 20260508190503 | 10 | 224 | 0.0 | 0.0 | 0.00 | 0.00 | 0.00 | 74 | 1023.2 |
| 20260508185503 | 10 | 224 | 0.0 | 0.0 | 0.00 | 0.00 | 0.00 | 76 | 1023.2 |
| 20260508184004 | 10 | 224 | 0.0 | 0.0 | 0.00 | 0.00 | 0.00 | 75 | 1023.2 |
| 20260508183504 | 10 | 224 | 0.0 | 0.0 | 0.00 | 0.00 | 0.00 | 79 | 1023.1 |
| 20260508183004 | 10 | 224 | 0.0 | 1.6 | 0.00 | 0.00 | 0.00 | 73 | 1023.2 |
| 20260508180504 | 8 | 223 | 0.0 | 3.2 | 0.00 | 0.00 | 0.00 | 78 | 1023.1 |
| 20260508180005 | 8 | 223 | 0.0 | 3.2 | 0.00 | 0.00 | 0.00 | 79 | 1023.1 |
| 20260508174504 | 8 | 213 | 0.0 | 1.6 | 0.00 | 0.00 | 0.00 | 79 | 1023.2 |
| 20260508174003 | 8 | 213 | 1.6 | 1.6 | 0.00 | 0.00 | 0.00 | 80 | 1023.2 |
| 20260508173504 | 8 | 209 | 0.0 | 0.0 | 0.00 | 0.00 | 0.00 | 83 | 1023.2 |
| 20260508173004 | 8 | 209 | 0.0 | 3.2 | 0.00 | 0.00 | 0.00 | 83 | 1023.2 |
| 20260508172504 | 8 | 209 | 0.0 | 3.2 | 0.00 | 0.00 | 0.00 | 80 | 1023.2 |
| 20260508172004 | 8 | 209 | 0.0 | 3.2 | 0.00 | 0.00 | 0.00 | 79 | 1023.2 |
| 20260508170503 | 8 | 160 | 0.0 | 0.0 | 0.00 | 0.00 | 0.00 | 79 | 1022.9 |
| 20260508165004 | 8 | 160 | 0.0 | 0.0 | 0.00 | 0.00 | 0.00 | 77 | 1022.8 |
| 20260508164503 | 8 | 160 | 0.0 | 3.2 | 0.00 | 0.00 | 0.00 | 76 | 1022.8 |
| 20260508164004 | 8 | 160 | 0.0 | 3.2 | 0.00 | 0.00 | 0.00 | 82 | 1022.9 |
| 20260508162003 | 8 | 160 | 0.0 | 0.0 | 0.00 | 0.00 | 0.00 | 82 | 1022.9 |
| 20260508160504 | 8 | 160 | 0.0 | 0.0 | 0.00 | 0.00 | 0.00 | 81 | 1022.7 |
| 20260508155003 | 8 | 160 | 0.0 | 1.6 | 0.00 | 0.00 | 0.00 | 82 | 1022.9 |
| 20260508154504 | 8 | 160 | 0.0 | 0.0 | 0.00 | 0.00 | 0.00 | 81 | 1022.9 |
| 20260508153503 | 8 | 160 | 0.0 | 0.0 | 0.00 | 0.00 | 0.00 | 80 | 1022.7 |
| 20260508152503 | 8 | 163 | 0.0 | 3.2 | 0.00 | 0.00 | 0.00 | 78 | 1022.7 |
| 20260508152004 | 8 | 163 | 0.0 | 3.2 | 0.00 | 0.00 | 0.00 | 79 | 1022.8 |
| 20260508151504 | 8 | 96 | 1.6 | 3.2 | 0.00 | 0.00 | 0.00 | 78 | 1022.7 |
| 20260508144504 | 9 | 136 | 0.0 | 0.0 | 0.00 | 0.00 | 0.00 | 76 | 1022.7 |
| 20260508143004 | 10 | 111 | 0.0 | 0.0 | 0.00 | 0.00 | 0.00 | 75 | 1022.7 |
| 20260508142504 | 10 | 111 | 0.0 | 0.0 | 0.00 | 0.00 | 0.00 | 75 | 1022.7 |
| 20260508142004 | 10 | 111 | 0.0 | 0.0 | 0.00 | 0.00 | 0.00 | 75 | 1022.7 |
| 20260508141003 | 11 | 243 | 0.0 | 0.0 | 0.00 | 0.00 | 0.00 | 74 | 1022.7 |
| 20260508140504 | 11 | 243 | 0.0 | 0.0 | 0.00 | 0.00 | 0.00 | 73 | 1022.6 |
| 20260508140004 | 11 | 243 | 0.0 | 0.0 | 0.00 | 0.00 | 0.00 | 72 | 1022.6 |
| 20260508134004 | 12 | 246 | 0.0 | 0.0 | 0.00 | 0.00 | 0.00 | 65 | 1022.3 |
| 20260508133004 | 12 | 239 | 0.0 | 0.0 | 0.00 | 0.00 | 0.00 | 64 | 1022.2 |
| 20260508131005 | 12 | 236 | 0.0 | 0.0 | 0.00 | 0.00 | 0.00 | 63 | 1022.2 |
| 20260508130504 | 12 | 236 | 0.0 | 0.0 | 0.00 | 0.00 | 0.00 | 64 | 1022.2 |
| 20260508130004 | 12 | 236 | 0.0 | 0.0 | 0.00 | 0.00 | 0.00 | 67 | 1022.2 |
| 20260508125504 | 12 | 236 | 0.0 | 0.0 | 0.00 | 0.00 | 0.00 | 64 | 1022.2 |
| 20260508125004 | 12 | 236 | 0.0 | 0.0 | 0.00 | 0.00 | 0.00 | 64 | 1022.2 |
| 20260508123504 | 12 | 232 | 0.0 | 0.0 | 0.00 | 0.00 | 0.00 | 64 | 1022.2 |
| 20260508122504 | 12 | 205 | 0.0 | 0.0 | 0.00 | 0.00 | 0.00 | 65 | 1022.2 |
| 20260508122004 | 12 | 205 | 0.0 | 0.0 | 0.00 | 0.00 | 0.00 | 66 | 1022.2 |
| 20260508121503 | 12 | 205 | 0.0 | 0.0 | 0.00 | 0.00 | 0.00 | 63 | 1022.2 |
| 20260508120506 | 12 | 197 | 0.0 | 0.0 | 0.00 | 0.00 | 0.00 | 64 | 1022.2 |
| 20260508115504 | 13 | 198 | 0.0 | 0.0 | 0.00 | 0.00 | 0.00 | 63 | 1022.2 |
| 20260508115004 | 13 | 198 | 0.0 | 0.0 | 0.00 | 0.00 | 0.00 | 62 | 1022.2 |
| 20260508114505 | 13 | 197 | 0.0 | 0.0 | 0.00 | 0.00 | 0.00 | 63 | 1022.3 |
| 20260508113004 | 14 | 198 | 0.0 | 0.0 | 0.00 | 0.00 | 0.00 | 57 | 1022.2 |
| 20260508111004 | 15 | 178 | 0.0 | 3.2 | 0.00 | 0.00 | 0.00 | 55 | 1021.9 |
| 20260508110504 | 15 | 183 | 0.0 | 3.2 | 0.00 | 0.00 | 0.00 | 55 | 1021.8 |
| 20260508105505 | 15 | 190 | 1.6 | 4.8 | 0.00 | 0.00 | 0.00 | 55 | 1021.6 |
| 20260508105004 | 15 | 158 | 1.6 | 4.8 | 0.00 | 0.00 | 0.00 | 56 | 1021.6 |
| 20260508104506 | 15 | 150 | 1.6 | 4.8 | 0.00 | 0.00 | 0.00 | 56 | 1021.6 |
| 20260508103005 | 15 | 170 | 1.6 | 4.8 | 0.00 | 0.00 | 0.00 | 54 | 1021.6 |
| 20260508102505 | 15 | 157 | 1.6 | 4.8 | 0.00 | 0.00 | 0.00 | 53 | 1021.6 |
| 20260508101005 | 16 | 173 | 3.2 | 4.8 | 0.00 | 0.00 | 0.00 | 50 | 1021.5 |
| 20260508100004 | 16 | 183 | 1.6 | 4.8 | 0.00 | 0.00 | 0.00 | 48 | 1021.6 |
| 20260508095504 | 16 | 185 | 3.2 | 4.8 | 0.00 | 0.00 | 0.00 | 49 | 1021.4 |
| 20260508092504 | 16 | 134 | 1.6 | 4.8 | 0.00 | 0.00 | 0.00 | 47 | 1021.1 |
| 20260508091505 | 16 | 136 | 1.6 | 4.8 | 0.00 | 0.00 | 0.00 | 46 | 1021.1 |
| 20260508090505 | 17 | 142 | 3.2 | 4.8 | 0.00 | 0.00 | 0.00 | 45 | 1021.0 |
| 20260508085004 | 17 | 163 | 3.2 | 8.0 | 0.00 | 0.00 | 0.00 | 42 | 1020.8 |
| 20260508084504 | 17 | 158 | 3.2 | 4.8 | 0.00 | 0.00 | 0.00 | 41 | 1020.8 |
| 20260508084004 | 17 | 177 | 1.6 | 4.8 | 0.00 | 0.00 | 0.00 | 40 | 1020.8 |
| 20260508083504 | 17 | 165 | 1.6 | 4.8 | 0.00 | 0.00 | 0.00 | 39 | 1020.7 |
| 20260508083004 | 18 | 115 | 1.6 | 4.8 | 0.00 | 0.00 | 0.00 | 39 | 1020.7 |
| 20260508082504 | 18 | 131 | 3.2 | 4.8 | 0.00 | 0.00 | 0.00 | 39 | 1020.7 |
| 20260508082005 | 18 | 133 | 1.6 | 4.8 | 0.00 | 0.00 | 0.00 | 39 | 1020.6 |
| 20260508081005 | 18 | 114 | 1.6 | 4.8 | 0.00 | 0.00 | 0.00 | 38 | 1020.3 |
| 20260508080505 | 18 | 103 | 1.6 | 4.8 | 0.00 | 0.00 | 0.00 | 38 | 1020.2 |
| 20260508080004 | 18 | 124 | 1.6 | 4.8 | 0.00 | 0.00 | 0.00 | 39 | 1020.1 |
| 20260508075005 | 18 | 132 | 3.2 | 4.8 | 0.00 | 0.00 | 0.00 | 38 | 1019.9 |
| 20260508074505 | 18 | 126 | 1.6 | 3.2 | 0.00 | 0.00 | 0.00 | 37 | 1019.9 |
| 20260508073006 | 19 | 83 | 1.6 | 4.8 | 0.00 | 0.00 | 0.00 | 35 | 1019.9 |
| 20260508072507 | 19 | 61 | 1.6 | 4.8 | 0.00 | 0.00 | 0.00 | 35 | 1019.9 |
| 20260508072006 | 20 | 64 | 3.2 | 3.2 | 0.00 | 0.00 | 0.00 | 35 | 1019.8 |
| 20260508070005 | 21 | 11 | 0.0 | 3.2 | 0.00 | 0.00 | 0.00 | 33 | 1019.5 |
| 20260508065504 | 21 | 11 | 1.6 | 4.8 | 0.00 | 0.00 | 0.00 | 32 | 1019.5 |
| 20260508064504 | 22 | 32 | 3.2 | 4.8 | 0.00 | 0.00 | 0.00 | 33 | 1019.5 |
| 20260508063504 | 22 | 15 | 0.0 | 4.8 | 0.00 | 0.00 | 0.00 | 31 | 1019.4 |
| 20260508063005 | 22 | 10 | 1.6 | 9.7 | 0.00 | 0.00 | 0.00 | 32 | 1019.2 |
| 20260508062505 | 22 | 3 | 4.8 | 11.3 | 0.00 | 0.00 | 0.00 | 30 | 1019.2 |
| 20260508062005 | 22 | 2 | 8.0 | 11.3 | 0.00 | 0.00 | 0.00 | 30 | 1019.3 |
| 20260508061505 | 22 | 358 | 6.4 | 9.7 | 0.00 | 0.00 | 0.00 | 31 | 1019.3 |
| 20260508060004 | 22 | 17 | 8.0 | 11.3 | 0.00 | 0.00 | 0.00 | 32 | 1019.4 |
| 20260508055504 | 22 | 12 | 6.4 | 14.5 | 0.00 | 0.00 | 0.00 | 32 | 1019.3 |
| 20260508054504 | 22 | 358 | 4.8 | 14.5 | 0.00 | 0.00 | 0.00 | 31 | 1019.3 |
| 20260508054004 | 22 | 1 | 4.8 | 9.7 | 0.00 | 0.00 | 0.00 | 32 | 1019.4 |
| 20260508053004 | 22 | 31 | 3.2 | 8.0 | 0.00 | 0.00 | 0.00 | 35 | 1019.4 |
| 20260508052005 | 22 | 8 | 6.4 | 14.5 | 0.00 | 0.00 | 0.00 | 31 | 1019.4 |
| 20260508051505 | 22 | 342 | 9.7 | 14.5 | 0.00 | 0.00 | 0.00 | 30 | 1019.5 |
| 20260508050004 | 22 | 353 | 3.2 | 16.1 | 0.00 | 0.00 | 0.00 | 32 | 1019.5 |
| 20260508045004 | 22 | 339 | 9.7 | 16.1 | 0.00 | 0.00 | 0.00 | 31 | 1019.6 |
| 20260508044505 | 23 | 10 | 4.8 | 16.1 | 0.00 | 0.00 | 0.00 | 30 | 1019.6 |
| 20260508044005 | 23 | 359 | 9.7 | 16.1 | 0.00 | 0.00 | 0.00 | 32 | 1019.5 |
| 20260508041505 | 22 | 41 | 3.2 | 9.7 | 0.00 | 0.00 | 0.00 | 30 | 1019.5 |
| 20260508040505 | 22 | 319 | 8.0 | 11.3 | 0.00 | 0.00 | 0.00 | 30 | 1019.6 |
| 20260508035004 | 22 | 346 | 3.2 | 11.3 | 0.00 | 0.00 | 0.00 | 32 | 1019.8 |
| 20260508034504 | 22 | 4 | 3.2 | 9.7 | 0.00 | 0.00 | 0.00 | 32 | 1019.9 |
| 20260508034005 | 22 | 199 | 3.2 | 19.3 | 0.00 | 0.00 | 0.00 | 32 | 1019.9 |
| 20260508033505 | 22 | 341 | 3.2 | 19.3 | 0.00 | 0.00 | 0.00 | 34 | 1020.0 |
| 20260508032504 | 22 | 12 | 6.4 | 12.9 | 0.00 | 0.00 | 0.00 | 34 | 1020.1 |
| 20260508031504 | 22 | 21 | 4.8 | 14.5 | 0.00 | 0.00 | 0.00 | 32 | 1020.4 |
| 20260508030005 | 22 | 341 | 8.0 | 14.5 | 0.00 | 0.00 | 0.00 | 32 | 1020.5 |